Date,TemperatureHighF,TemperatureAvgF,TemperatureLowF,DewpointHighF,DewpointAvgF,DewpointLowF,HumidityHigh,HumidityAvg,HumidityLow,PressureMaxIn,PressureMinIn,WindSpeedMaxMPH,WindSpeedAvgMPH,GustSpeedMaxMPH,PrecipitationSumIn
2013-1-1,28,20,9,13,4,-2,71,50,34,0.00,40.00,20,11,26,0.00
2013-1-2,27,19,6,13,3,-5,72,51,32,0.00,40.00,26,11,32,0.00
2013-1-3,36,18,5,-2,-7,-20,56,34,11,0.00,40.00,17,8,21,0.00
2013-1-4,35,20,11,6,-3,-9,46,35,27,0.00,40.00,17,7,23,0.00
2013-1-5,34,19,3,4,-2,-9,59,39,26,0.00,40.00,14,7,19,0.00
2013-1-6,51,33,7,3,-5,-33,52,22,10,0.00,40.00,28,12,40,0.00
2013-1-7,45,36,23,3,-3,-9,24,18,14,0.00,40.00,31,17,39,0.00
2013-1-8,44,38,34,12,8,3,36,28,22,0.00,40.00,30,21,42,0.00
2013-1-9,55,46,37,13,8,0,35,22,11,0.00,40.00,29,18,40,0.00
2013-1-10,55,45,30,9,2,-1,31,16,11,0.00,40.00,29,10,39,0.00
2013-1-11,39,14,4,16,1,-25,71,56,22,0.00,40.00,20,9,29,0.00
2013-1-12,10,4,-3,-2,-6,-14,67,61,40,0.00,40.00,22,8,29,0.00
2013-1-13,12,2,-4,-5,-9,-41,69,61,11,0.00,40.00,9,4,12,0.00
2013-1-14,12,3,-11,-7,-12,-18,68,50,35,0.00,40.00,23,10,30,0.00
2013-1-15,30,21,9,7,0,-13,42,39,35,0.00,40.00,23,17,32,0.00
2013-1-16,43,30,21,9,5,0,44,33,18,0.00,40.00,26,13,34,0.00
2013-1-17,47,32,17,7,2,-2,47,30,15,0.00,40.00,26,10,33,0.00
2013-1-18,51,41,33,-1,-3,-7,20,15,10,0.00,40.00,28,17,35,0.00
2013-1-19,50,39,27,0,-3,-9,24,16,10,0.00,40.00,22,12,29,0.00
2013-1-20,39,28,10,8,3,-5,74,36,18,0.00,40.00,17,7,32,0.00
2013-1-21,50,36,10,9,1,-6,75,28,10,0.00,40.00,26,14,34,0.00
2013-1-22,54,42,26,-1,-6,-10,20,13,10,0.00,40.00,22,13,29,0.00
2013-1-23,58,48,41,2,-6,-11,10,10,10,0.00,40.00,22,12,31,0.00
2013-1-24,54,47,34,23,8,-9,61,23,10,0.00,40.00,36,21,53,0.00
2013-1-25,52,42,35,22,17,14,56,37,23,0.00,40.00,27,17,36,0.00
2013-1-26,54,45,38,20,17,16,40,32,24,0.00,40.00,24,14,34,0.00
2013-1-27,54,45,37,23,19,15,46,36,25,0.00,40.00,25,10,31,0.00
2013-1-28,42,28,20,24,19,5,81,70,34,0.00,40.00,13,5,18,0.00
2013-1-29,27,18,9,9,0,-33,67,47,11,0.00,40.00,16,7,24,0.00
2013-1-30,33,23,2,12,4,-18,67,44,31,0.00,40.00,23,12,31,0.00
2013-1-31,33,27,20,17,12,6,69,54,40,0.00,40.00,18,6,28,0.00
2013-2-1,39,33,21,26,15,6,71,49,36,0.00,40.00,21,11,30,0.00
2013-2-2,46,31,18,16,7,0,71,40,14,0.00,40.00,24,9,29,0.00
2013-2-3,48,34,18,12,6,-22,69,34,11,0.00,40.00,27,10,34,0.00
2013-2-4,49,35,21,10,6,-11,58,32,11,0.00,40.00,23,10,32,0.00
2013-2-5,50,38,19,14,9,-11,62,31,18,0.00,40.00,19,8,26,0.00
2013-2-6,46,40,29,18,9,3,64,29,18,0.00,40.00,22,8,27,0.00
2013-2-7,47,30,15,20,2,-15,80,41,10,0.00,40.00,20,6,27,0.00
2013-2-8,51,37,22,3,-2,-15,27,19,10,0.00,40.00,16,7,21,0.00
2013-2-9,31,26,20,23,15,0,81,65,26,0.00,40.00,10,4,15,0.00
2013-2-10,26,21,6,18,9,-7,76,59,40,0.00,40.00,16,7,26,0.00
2013-2-11,25,12,-3,4,-4,-11,70,50,28,0.00,40.00,17,6,24,0.00
2013-2-12,28,23,16,5,-1,-8,38,34,30,0.00,40.00,22,14,31,0.00
2013-2-13,40,32,26,21,11,4,71,42,30,0.00,40.00,27,16,37,0.00
2013-2-14,30,24,20,21,12,6,73,58,40,0.00,40.00,27,8,35,0.00
2013-2-15,32,24,10,14,9,-4,77,54,30,0.00,40.00,19,9,27,0.00
2013-2-16,44,35,22,11,8,5,48,33,23,0.00,40.00,27,14,37,0.00
2013-2-17,44,38,27,17,7,-1,58,30,16,0.00,40.00,32,18,48,0.00
2013-2-18,33,25,13,18,11,1,73,56,34,0.00,40.00,16,8,32,0.00
2013-2-19,39,23,8,15,7,3,79,54,24,0.00,40.00,16,8,19,0.00
2013-2-20,33,25,16,19,10,6,79,56,34,0.00,40.00,16,7,19,0.00
2013-2-21,26,24,17,19,15,1,81,68,35,0.00,40.00,10,5,12,0.00
2013-2-22,34,24,12,12,3,-5,73,44,21,0.00,40.00,26,11,30,0.00
2013-2-23,39,32,26,24,8,-2,81,39,25,0.00,40.00,30,20,44,0.00
2013-2-24,31,23,11,20,11,-30,75,61,12,0.00,40.00,21,7,30,0.00
2013-2-25,33,23,5,5,1,-16,73,42,11,0.00,40.00,22,11,32,0.00
2013-2-26,31,26,13,21,13,1,78,59,26,0.00,40.00,24,9,31,0.00
2013-2-27,30,20,8,13,4,-2,73,52,33,0.00,40.00,21,9,27,0.00
2013-2-28,35,25,13,7,2,-29,51,37,11,0.00,40.00,21,9,27,0.00
2013-3-1,46,31,17,19,10,-26,55,42,11,0.00,40.00,21,7,29,0.00
2013-3-2,52,44,32,21,17,-3,59,34,11,0.00,40.00,22,12,29,0.00
2013-3-3,52,45,28,19,16,-4,64,31,11,0.00,40.00,30,22,44,0.00
2013-3-4,30,24,12,19,4,-8,78,45,20,0.00,40.00,28,12,38,0.00
2013-3-5,45,25,7,6,0,-33,71,40,10,0.00,40.00,18,6,26,0.00
2013-3-6,59,41,17,9,5,-24,60,27,10,0.00,40.00,26,11,35,0.00
2013-3-7,56,46,35,18,11,-6,41,24,12,0.00,40.00,21,11,30,0.00
2013-3-8,47,37,28,22,18,-11,73,49,11,0.00,40.00,28,10,35,0.00
2013-3-9,38,33,25,26,12,0,81,46,20,0.00,40.00,29,11,36,0.00
2013-3-10,49,33,18,15,6,-3,74,40,11,0.00,40.00,17,8,26,0.00
2013-3-11,40,34,26,27,16,6,79,52,27,0.00,40.00,19,7,23,0.00
2013-3-12,41,28,12,21,14,5,77,58,30,0.00,40.00,8,4,13,0.00
2013-3-13,61,45,28,24,17,8,70,36,12,0.00,40.00,24,11,30,0.00
2013-3-14,67,50,34,22,16,7,50,29,10,0.00,40.00,24,8,31,0.00
2013-3-15,68,57,42,18,11,5,33,17,10,0.00,40.00,24,13,37,0.00
2013-3-16,54,41,30,29,20,11,82,48,18,0.00,40.00,16,8,22,0.00
2013-3-17,50,36,24,30,11,-12,82,48,10,0.00,40.00,43,20,55,0.00
2013-3-18,43,27,11,7,-3,-13,56,31,10,0.00,40.00,27,8,34,0.00
2013-3-19,38,28,19,20,9,-3,79,48,16,0.00,40.00,21,10,28,0.00
2013-3-20,55,34,13,17,8,-24,73,41,10,0.00,40.00,31,13,41,0.00
2013-3-21,47,37,22,28,20,15,81,53,31,0.00,40.00,24,11,30,0.00
2013-3-22,33,24,17,18,13,6,80,63,37,0.00,40.00,14,4,20,0.00
2013-3-23,20,17,15,11,5,0,65,57,50,0.00,40.00,10,6,18,0.00
2013-3-25,37,26,8,7,-1,-8,69,36,14,0.00,40.00,14,7,20,0.00
2013-3-26,45,35,24,16,3,-5,52,26,11,0.00,40.00,16,6,24,0.00
2013-3-27,56,39,22,21,16,10,76,43,16,0.00,40.00,11,3,16,0.00
2013-3-28,60,44,28,23,13,2,67,35,10,0.00,40.00,17,6,21,0.00
2013-3-29,65,46,29,34,16,3,74,38,10,0.00,40.00,21,7,37,0.00
2013-3-30,50,38,32,34,26,-100,81,66,25,0.00,40.00,21,6,29,0.00
2013-3-31,61,44,30,23,14,0,71,38,10,0.00,40.00,21,8,27,0.00
2013-4-1,53,40,26,21,14,7,74,40,16,0.00,40.00,14,8,19,0.00
2013-4-2,57,42,23,19,10,2,71,32,10,0.00,40.00,15,6,21,0.00
2013-4-3,65,45,24,29,16,4,71,38,10,0.00,40.00,26,7,34,0.00
2013-4-4,69,50,28,33,18,4,81,41,10,0.00,40.00,19,6,27,0.00
2013-4-5,69,57,39,31,16,8,69,22,10,0.00,40.00,33,14,45,0.00
2013-4-6,60,48,34,31,14,0,70,30,10,0.00,40.00,23,10,28,0.00
2013-4-7,58,50,42,21,16,-5,35,26,12,0.00,40.00,30,17,39,0.00
2013-4-8,49,31,14,28,15,4,78,56,24,0.00,40.00,27,10,34,0.00
2013-4-9,16,12,10,6,2,-32,73,64,11,0.00,40.00,15,6,24,0.00
2013-4-10,26,16,10,8,5,2,73,61,44,0.00,40.00,11,6,15,0.00
2013-4-11,44,35,15,27,20,-2,73,54,15,0.00,40.00,17,9,23,0.00
2013-4-12,44,35,31,29,25,16,81,66,32,0.00,40.00,14,7,19,0.00
2013-4-13,54,42,27,28,20,6,80,47,17,0.00,40.00,40,18,58,0.00
2013-4-14,37,31,26,26,13,0,82,51,20,0.00,40.00,28,13,38,0.00
2013-4-15,30,25,19,16,10,4,66,52,42,0.00,40.00,16,7,19,0.00
2013-4-16,24,21,19,17,14,7,81,73,47,0.00,40.00,30,17,35,0.00
2013-4-17,29,21,18,15,11,6,79,66,41,0.00,40.00,18,8,23,0.00
2013-4-18,32,21,13,12,7,2,77,55,33,0.00,40.00,20,11,25,0.00
2013-4-19,48,37,22,20,12,0,48,36,15,0.00,40.00,26,10,34,0.00
2013-4-20,55,45,37,32,23,3,78,44,11,0.00,40.00,24,9,30,0.00
2013-4-21,57,43,34,32,24,0,76,53,11,0.00,40.00,24,9,37,0.00
2013-4-22,36,26,19,30,15,6,77,63,46,0.00,40.00,22,11,28,0.00
2013-4-23,40,24,8,13,3,-19,75,46,11,0.00,40.00,17,8,24,0.00
2013-4-24,48,35,24,12,7,-1,53,33,13,0.00,40.00,25,11,38,0.00
2013-4-25,65,48,28,12,6,-7,48,21,10,0.00,40.00,26,12,34,0.00
2013-4-26,68,49,26,17,11,2,61,27,10,0.00,40.00,14,5,22,0.00
2013-4-27,74,55,33,20,13,2,50,22,10,0.00,40.00,19,8,30,0.00
2013-4-28,67,56,44,31,20,16,59,26,15,0.00,40.00,21,7,26,0.00
2013-4-29,70,55,35,33,16,4,78,32,10,0.00,40.00,35,18,49,0.00
2013-4-30,43,38,31,27,18,9,81,47,27,0.00,40.00,19,10,25,0.00
2013-5-1,37,30,26,26,18,10,81,60,40,0.00,40.00,17,8,20,0.00
2013-5-2,52,37,21,18,8,-4,71,37,10,0.00,40.00,18,8,29,0.00
2013-5-3,66,46,23,17,9,-1,64,29,10,0.00,40.00,14,5,21,0.00
2013-5-4,57,47,35,17,13,-6,43,26,11,0.00,40.00,19,11,27,0.00
2013-5-5,61,47,31,18,14,10,54,29,14,0.00,40.00,20,11,29,0.00
2013-5-6,68,52,33,27,18,11,72,31,11,0.00,40.00,14,7,21,0.00
2013-5-7,71,54,33,28,22,15,69,31,12,0.00,40.00,22,8,29,0.00
2013-5-8,69,55,40,33,25,12,65,36,11,0.00,40.00,24,9,35,0.00
2013-5-9,68,52,37,41,30,19,77,50,16,0.00,40.00,24,6,34,0.00
2013-5-10,70,53,38,37,22,-100,81,42,10,0.00,40.00,30,8,35,0.00
2013-5-11,72,55,39,31,19,-100,69,30,10,0.00,40.00,11,5,19,0.00
2013-5-12,80,64,47,26,21,13,40,21,10,0.00,40.00,18,8,24,0.00
2013-5-13,87,70,50,33,25,18,44,21,10,0.00,40.00,16,6,22,0.00
2013-5-14,87,71,54,29,23,13,25,17,10,0.00,40.00,19,8,29,0.00
2013-5-15,81,62,47,48,32,22,72,36,12,0.00,40.00,29,9,41,0.00
2013-5-16,77,59,48,46,20,-100,79,41,12,0.00,40.00,27,8,41,0.00
2013-5-17,82,64,51,45,30,-100,76,40,10,0.00,40.00,22,7,32,0.00
2013-5-18,72,57,46,44,34,16,79,48,14,0.00,40.00,22,7,35,0.00
2013-5-19,54,49,44,43,40,-1,81,70,11,0.00,40.00,21,11,27,0.00
2013-5-20,51,47,44,40,30,20,74,51,30,0.00,40.00,26,18,39,0.00
2013-5-21,63,52,43,34,25,14,69,39,14,0.00,40.00,19,11,26,0.00
2013-5-22,65,50,38,37,32,7,81,54,11,0.00,40.00,28,14,36,0.00
2013-5-23,69,56,45,39,36,33,77,48,26,0.00,40.00,33,24,44,0.00
2013-5-24,76,65,49,41,19,6,74,23,10,0.00,40.00,24,13,31,0.00
2013-5-25,84,63,42,35,24,13,61,27,10,0.00,40.00,21,5,32,0.00
2013-5-26,76,62,46,40,34,15,69,37,10,0.00,40.00,22,7,29,0.00
2013-5-27,78,62,47,48,31,12,79,40,10,0.00,40.00,27,11,36,0.00
2013-5-28,72,58,42,35,27,23,63,32,17,0.00,40.00,21,8,27,0.00
2013-5-29,60,52,46,44,37,31,77,56,34,0.00,40.00,31,8,39,0.00
2013-5-30,61,54,49,34,27,23,56,36,23,0.00,40.00,33,20,44,0.00
2013-5-31,57,51,45,36,25,22,68,37,26,0.00,40.00,32,21,42,0.00
2013-6-1,67,54,45,37,26,18,74,38,15,0.00,40.00,17,9,24,0.00
2013-6-2,85,63,37,37,25,12,80,33,10,0.00,40.00,33,7,49,0.00
2013-6-3,77,64,50,41,23,9,52,24,10,0.00,40.00,24,12,35,0.00
2013-6-4,62,51,39,32,27,-4,73,41,11,0.00,40.00,18,8,22,0.00
2013-6-5,70,53,36,34,24,15,79,38,12,0.00,40.00,14,5,17,0.00
2013-6-6,78,60,38,32,24,17,74,31,10,0.00,40.00,14,6,22,0.00
2013-6-7,83,67,48,37,28,18,57,26,10,0.00,40.00,16,6,27,0.00
2013-6-8,73,63,52,47,34,21,78,38,14,0.00,40.00,23,9,32,0.00
2013-6-9,85,67,45,42,32,22,76,34,10,0.00,40.00,17,5,22,0.00
2013-6-10,90,75,57,43,33,25,50,23,11,0.00,40.00,17,6,27,0.00
2013-6-11,89,71,52,50,35,16,79,35,10,0.00,40.00,26,9,37,0.00
2013-6-12,83,66,47,43,35,25,73,36,12,0.00,40.00,28,10,39,0.00
2013-6-13,90,68,52,45,39,22,73,41,10,0.00,40.00,30,13,45,0.00
2013-6-14,81,67,52,47,31,14,69,32,10,0.00,40.00,24,12,34,0.00
2013-6-15,78,63,42,36,32,29,74,35,16,0.00,40.00,13,5,17,0.00
2013-6-16,87,70,47,38,28,17,60,25,10,0.00,40.00,16,7,20,0.00
2013-6-17,82,68,55,46,39,31,57,36,20,0.00,40.00,23,10,32,0.00
2013-6-18,80,66,47,42,34,5,75,35,12,0.00,40.00,32,12,42,0.00
2013-6-19,94,75,56,43,31,8,58,24,10,0.00,40.00,24,11,33,0.00
2013-6-20,83,66,54,20,11,3,14,11,10,0.00,40.00,17,10,22,0.00
2013-6-22,78,64,53,44,37,27,59,38,19,0.00,40.00,21,9,31,0.00
2013-6-23,84,65,45,42,33,18,80,39,10,0.00,40.00,16,8,29,0.00
2013-6-24,90,70,49,41,32,19,66,32,10,0.00,40.00,17,6,26,0.00
2013-6-25,83,74,63,30,25,21,22,16,11,0.00,40.00,24,15,39,0.00
2013-6-26,92,76,53,37,28,24,38,18,10,0.00,40.00,22,7,31,0.00
2013-6-27,95,75,53,44,34,26,61,27,10,0.00,40.00,18,7,27,0.00
2013-6-28,91,78,59,45,40,36,58,27,16,0.00,40.00,17,8,22,0.00
2013-6-29,90,76,55,44,38,35,63,28,15,0.00,40.00,17,6,21,0.00
2013-6-30,86,71,58,52,40,28,77,39,14,0.00,40.00,12,6,19,0.00
2013-7-1,85,64,51,43,38,29,69,40,13,0.00,40.00,16,6,22,0.00
2013-7-2,86,65,54,45,40,25,67,45,12,0.00,40.00,12,4,19,0.00
2013-7-3,92,74,49,37,32,25,53,24,10,0.00,40.00,18,6,25,0.00
2013-7-4,92,76,55,58,39,32,77,30,12,0.00,40.00,20,7,26,0.00
2013-7-5,86,67,59,56,50,33,79,60,16,0.00,40.00,14,4,19,0.00
2013-7-6,84,67,57,55,45,34,77,49,17,0.00,40.00,16,7,22,0.00
2013-7-7,93,72,61,51,42,23,66,41,10,0.00,40.00,10,6,18,0.00
2013-7-8,89,66,60,49,38,-100,59,43,12,0.00,40.00,18,10,24,0.00
2013-7-9,93,70,51,44,36,28,70,34,10,0.00,40.00,15,8,23,0.00
2013-7-10,94,75,56,46,32,-100,67,28,10,0.00,40.00,15,8,23,0.00
2013-7-11,100,80,60,51,39,27,69,28,10,0.00,40.00,14,7,20,0.00
2013-7-12,89,80,69,44,39,28,32,23,14,0.00,40.00,17,8,26,0.00
2013-7-13,90,78,62,47,39,31,56,26,12,0.00,40.00,23,7,30,0.00
2013-7-15,91,78,66,55,45,35,67,33,16,0.00,40.00,17,10,22,0.00
2013-7-16,89,74,55,43,36,26,58,29,10,0.00,40.00,19,8,26,0.00
2013-7-17,91,73,55,49,39,33,74,36,12,0.00,40.00,9,3,19,0.00
2013-7-18,92,77,65,45,38,33,42,26,13,0.00,40.00,13,7,19,0.00
2013-7-19,87,69,60,53,43,39,74,40,18,0.00,40.00,14,6,22,0.00
2013-7-20,88,66,58,48,44,29,62,47,11,0.00,40.00,8,4,12,0.00
2013-7-21,97,73,51,44,39,27,72,36,10,0.00,40.00,17,6,23,0.00
2013-7-22,97,74,56,42,35,23,55,29,10,0.00,40.00,16,5,21,0.00
2013-7-23,91,74,55,47,38,24,68,33,10,0.00,40.00,10,4,16,0.00
2013-7-24,89,75,58,51,45,40,61,36,19,0.00,40.00,17,10,24,0.00
2013-7-25,84,71,58,49,40,30,71,35,15,0.00,40.00,12,6,19,0.00
2013-7-26,89,69,51,44,39,29,63,36,11,0.00,40.00,19,8,28,0.00
2013-7-27,78,66,52,53,45,38,75,50,24,0.00,40.00,17,10,27,0.00
2013-7-28,83,68,59,53,46,36,76,49,20,0.00,40.00,18,6,24,0.00
2013-7-29,81,63,55,52,46,33,79,59,18,0.00,40.00,17,7,23,0.00
2013-7-30,85,67,56,51,42,29,76,47,14,0.00,40.00,21,7,26,0.00
2013-7-31,85,66,54,47,43,36,74,47,17,0.00,40.00,7,4,12,0.00
2013-8-1,89,70,55,51,44,35,78,45,15,0.00,40.00,9,5,16,0.00
2013-8-2,89,73,59,51,43,32,70,39,13,0.00,40.00,20,7,25,0.00
2013-8-3,83,71,60,56,49,44,79,50,26,0.00,40.00,25,10,31,0.00
2013-8-4,93,69,55,51,43,25,77,45,10,0.00,40.00,13,6,17,0.00
2013-8-5,91,74,60,53,39,24,71,37,10,0.00,40.00,11,4,18,0.00
2013-8-6,84,69,54,45,38,29,66,36,16,0.00,40.00,18,6,26,0.00
2013-8-7,86,73,56,45,41,35,64,33,17,0.00,40.00,17,8,22,0.00
2013-8-8,82,63,52,48,41,27,79,48,14,0.00,40.00,25,8,40,0.00
2013-8-9,79,61,54,51,44,34,73,56,20,0.00,40.00,16,6,19,0.00
2013-8-10,77,57,49,48,43,31,80,63,23,0.00,40.00,9,3,11,0.00
2013-8-11,84,68,55,50,36,28,60,35,13,0.00,40.00,22,6,32,0.00